Location: ?????????
(42.1392°N, 44.1931°E)
Time: 07:54:42
(UTC+00:00)

STARLINK-1007 - Pass Details

Date: 07 June 2020
Orbit: 549 x 550 km, 53.0° (Epoch: 06 July)

Event Time Altitude Azimuth Distance (km) Brightness Sun altitude
Exits shadow 00:25:36 13° 240° (WSW) 1,627 5.4 -9.9°
Maximum altitude 00:29:14 73° 324° (NW) 576 3.7 -9.4°
Drops below altitude 10° 00:33:23 10° 50° (NE) 1,824 8.0 -8.8°
Sets 00:35:37 0° 53° (NE) 2,720 9.6 -8.5°
